Regional Weather Roundup
Issued by NWS San Angelo, TX

Home | Current Version | Previous Version | Text Only | Print | Product List | Glossary On
Versions: 1 2 3 4 5 6 7 8 9 10 11 12 13 14 15 16 17 18 19 20 21 22 23 24 25 26 27 28 29 30 31 32 33 34 35 36 37 38 39 40 41 42 43 44 45 46 47 48 49 50
000
ASUS44 KSJT 200058
RWRSJT
WEST CENTRAL TEXAS REGIONAL WEATHER ROUNDUP
NATIONAL WEATHER SERVICE SAN ANGELO TX
700 PM CST FRI DEC 19 2014

NOTE: "FAIR" INDICATES FEW OR NO CLOUDS BELOW 12,000 FEET WITH NO
SIGNIFICANT WEATHER AND/OR OBSTRUCTIONS TO VISIBILITY.

TXZ049-054-064>066-071>073-076>078-098-099-113-114-127-128-139-140-
154-155-168>170-200200
...LOCATIONS ACROSS WEST CENTRAL TEXAS...

CITY           SKY/WX    TMP DP  RH WIND       PRES   REMARKS
SAN ANGELO     CLOUDY    49  41  74 NE10      30.15S
ABILENE        CLOUDY    45  40  82 NE5       30.18R
DYESS AFB      NOT AVBL
JUNCTION       CLEAR     49  44  83 CALM      30.14R
SWEETWATER     NOT AVBL
BROWNWOOD      NOT AVBL
COLEMAN        NOT AVBL
SONORA         NOT AVBL
OZONA          NOT AVBL
BRADY          NOT AVBL
$$

TEXAS PANHANDLE/OKLAHOMA PANHANDLE

CITY           SKY/WX    TMP DP  RH WIND       PRES   REMARKS
AMARILLO       CLOUDY    40  35  83 S6        30.14S WCI  36
BORGER         CLOUDY    42  35  76 SW6       30.14S WCI  38
CANADIAN       NOT AVBL
DALHART        CLEAR     32  29  88 S6        30.10S WCI  26
DUMAS          NOT AVBL
GUYMON         NOT AVBL
HEREFORD       NOT AVBL
PAMPA          NOT AVBL
PERRYTON       NOT AVBL
$$

SOUTHERN PANHANDLE/SOUTH PLAINS/ROLLING PLAINS

CITY           SKY/WX    TMP DP  RH WIND       PRES   REMARKS
LUBBOCK        PTCLDY    37  34  89 E6        30.14R WCI  32
SNYDER         NOT AVBL
CHILDRESS      CLOUDY    44  39  82 CALM      30.19R
SEMINOLE       NOT AVBL
$$

PERMIAN BASIN

CITY           SKY/WX    TMP DP  RH WIND       PRES   REMARKS
MIDLAND        NOT AVBL
ODESSA         NOT AVBL
WINK           CLEAR     49  31  49 S7        30.10R
$$

FAR WEST/SOUTHWEST MOUNTAINS/TRANS PECOS

CITY           SKY/WX    TMP DP  RH WIND       PRES   REMARKS
ALPINE         NOT AVBL
DRYDEN           N/A     54  40  59 NE8       30.09R
EL PASO        PTCLDY    50  30  46 W5        30.13S
FORT STOCKTON  CLEAR     50  34  54 NE7       30.13R
GUADALUPE PASS NOT AVBL
MARFA          NOT AVBL
PECOS          NOT AVBL
$$

DALLAS/FORT WORTH METROPLEX

CITY           SKY/WX    TMP DP  RH WIND       PRES   REMARKS
DFW AIRPORT    CLOUDY    48  44  86 NE10      30.18R
FTW MEACHAM    CLOUDY    49  43  80 N6        30.18R
DAL-EXECUTIVE  NOT AVBL
GRAND PRAIRIE  NOT AVBL
ADDISON        CLOUDY    48  45  87 N8        30.19R FOG
MESQUITE       CLOUDY    48  46  93 N7        30.19R
LANCASTER      NOT AVBL
$$

NORTH CENTRAL TEXAS

CITY           SKY/WX    TMP DP  RH WIND       PRES   REMARKS
SHRMAN/DENISON NOT AVBL
GAINESVILLE    NOT AVBL
BRIDGEPORT     NOT AVBL
DENTON         CLOUDY    46  42  86 N7        30.19S
WAXAHACHIE     NOT AVBL
GRANBURY       NOT AVBL
$$

WESTERN NORTH TEXAS

CITY           SKY/WX    TMP DP  RH WIND       PRES   REMARKS
WICHITA FALLS  CLOUDY    44  40  85 NE3       30.20R
VERNON         NOT AVBL
BRECKENRIDGE   NOT AVBL
COMANCHE       NOT AVBL
$$

CENTRAL AND SOUTH CENTRAL TEXAS

CITY           SKY/WX    TMP DP  RH WIND       PRES   REMARKS
AUSTIN/BERGSTM CLOUDY    51  47  86 N15       30.15R
WACO           CLOUDY    49  46  90 N8        30.18R
HILLSBORO      NOT AVBL
TEMPLE         NOT AVBL
KILLEEN-GRAY   CLOUDY    46  46 100 N13       30.16R FOG
FORT HOOD      CLOUDY    46  46 100 N12       30.16R
GEORGETOWN     CLOUDY    48  46  93 N9        30.15R
LAGO VISTA     NOT AVBL
SAN MARCOS     CLOUDY    54  46  76 N15       30.14R
NEW BRAUNFELS  CLOUDY    55  47  74 N14       30.12R
RANDOLPH AFB   NOT AVBL
SAN ANTONIO    PTCLDY    54  47  77 NE9       30.13R
STINSON        NOT AVBL
PLEASANTON     NOT AVBL
LA GRANGE      NOT AVBL
GIDDINGS       NOT AVBL
$$

EAST TEXAS

CITY           SKY/WX    TMP DP  RH WIND       PRES   REMARKS
PARIS          NOT AVBL
CLARKSVILLE    NOT AVBL
TYLER          NOT AVBL
LONGVIEW       CLOUDY    48  45  89 NE8       30.16R
PALESTINE      NOT AVBL
NACOGDOCHES    NOT AVBL
$$

TEXAS HILL COUNTRY AND EDWARDS PLATEAU

CITY           SKY/WX    TMP DP  RH WIND       PRES   REMARKS
LLANO          NOT AVBL
HORSESHOE BAY  NOT AVBL
KERRVILLE      NOT AVBL
FREDERICKSBRG  NOT AVBL
ROCKSPRINGS    NOT AVBL
HONDO          CLEAR     55  48  77 NE8       30.13R
UVALDE         NOT AVBL
DEL RIO        CLEAR     59  44  57 E6        30.07R
$$

SOUTHEAST TEXAS

CITY           SKY/WX    TMP DP  RH WIND       PRES   REMARKS
COLLEGE STN    CLOUDY    51  50  96 N13       30.13R FOG
CALDWELL       NOT AVBL
CROCKETT       NOT AVBL
BRENHAM        NOT AVBL
HUNTSVILLE     LGT RAIN  52  48  87 N8        30.12R FOG
CONROE         CLOUDY    54  52  93 N12       30.10R
HOUSTON BUSH   CLOUDY    55  53  93 N13       30.08R
HOUSTON HOBBY  CLOUDY    54  53  97 N15       30.06R
PERLAND        NOT AVBL
WHARTON        NOT AVBL
$$

THE UPPER TEXAS COAST

CITY           SKY/WX    TMP DP  RH WIND       PRES   REMARKS
ORANGE         NOT AVBL
PORT ARTHUR    LGT RAIN  54  53  97 N10       30.05R
GALVESTON      LGT RAIN  55  54  96 N18       30.04R
ANGLETON       NOT AVBL
BAY CITY       NOT AVBL
$$

TEXAS COASTAL BEND, RIO GRANDE PLAINS DEEP SOUTH TEXAS

CITY           SKY/WX    TMP DP  RH WIND       PRES   REMARKS
VICTORIA       CLOUDY    61  55  81 N13       30.08R
BEEVILLE       NOT AVBL
ROCKPORT       CLOUDY    60  55  83 N12       30.05S
PORT ARANSAS   NOT AVBL
PORT LAVACA    NOT AVBL
CORPUS CHRISTI CLOUDY    61  56  83 N10       30.06R
KINGSVILLE NAS NOT AVBL
COTULLA        CLEAR     59  50  72 NE5       30.09R
LAREDO         NOT AVBL
BROWNSVILLE    CLOUDY    60  57  89 N10G20    30.05R
PORT ISABEL    NOT AVBL
HEBBRONVILLE   NOT AVBL
MCALLEN        CLOUDY    62  57  83 N10       30.08R
WESLACO        NOT AVBL
FALFURRIAS     NOT AVBL
EDINBURG       NOT AVBL
$$


USA.gov is the U.S. government's official web portal to all federal, state and local government web resources and services.